Location: Buckeye Ditch
(40.9104°N, 122.9517°W)
Time: 12:46:44
(UTC+00:00)

Explorer 7 - Pass Details

Date: 19 May 2025
Orbit: 445 x 571 km, 50.3° (Epoch: 22 June)

Event Time Altitude Azimuth Distance (km) Brightness Sun altitude
Rises 15:22:09 0° 305° (NW) 2,634 9.9 26.6°
Reaches altitude 10° 15:24:28 10° 314° (NW) 1,769 9.1 27.0°
Maximum altitude 15:28:11 35° 22° (NNE) 883 8.5 27.8°
Drops below altitude 10° 15:32:03 10° 89° (E) 1,831 11.2 28.5°
Sets 15:34:29 0° 98° (E) 2,741 11.6 28.9°
